Time,TemperatureF,DewpointF,PressureIn,WindDirection,WindDirectionDegrees,WindSpeedMPH,WindSpeedGustMPH,Humidity,HourlyPrecipIn,Conditions,Clouds,dailyrainin,SolarRadiationWatts/m^2,SoftwareType,DateUTC
2013-06-13 00:02:00,61.0,60.0,29.77,ENE,58,9.0,15.0,97,0.02,,,1.47,0.000000,,2013-06-13 05:02:00,
2013-06-13 00:12:00,60.0,59.0,29.77,ENE,66,8.0,16.0,97,0.01,,,1.47,0.000000,,2013-06-13 05:12:00,
2013-06-13 00:24:00,59.0,58.0,29.78,NNE,30,7.0,17.0,97,0.01,,,1.47,0.000000,,2013-06-13 05:24:00,
2013-06-13 00:33:00,59.0,58.0,29.78,NE,42,7.0,15.0,97,0.01,,,1.47,0.000000,,2013-06-13 05:33:00,
2013-06-13 00:43:00,59.0,58.0,29.78,ESE,102,6.0,14.0,97,0.00,,,1.47,0.000000,,2013-06-13 05:43:00,
2013-06-13 00:53:00,59.0,58.0,29.78,ENE,57,4.0,21.0,96,0.00,,,1.47,0.000000,,2013-06-13 05:53:00,
2013-06-13 01:02:00,58.0,57.0,29.80,NW,313,2.0,7.0,96,0.00,,,1.47,0.000000,,2013-06-13 06:02:00,
2013-06-13 01:11:00,59.0,58.0,29.80,NW,317,1.0,4.0,96,0.00,,,1.47,0.000000,,2013-06-13 06:11:00,
2013-06-13 01:22:00,59.0,58.0,29.81,North,350,2.0,6.0,95,0.00,,,1.47,0.000000,,2013-06-13 06:22:00,
2013-06-13 01:33:00,59.0,58.0,29.81,NNE,19,1.0,5.0,95,0.00,,,1.47,0.000000,,2013-06-13 06:33:00,
2013-06-13 01:44:00,59.0,57.0,29.82,NNE,12,3.0,8.0,94,0.00,,,1.47,0.000000,,2013-06-13 06:44:00,
2013-06-13 01:52:00,59.0,57.0,29.82,NE,40,5.0,10.0,94,0.00,,,1.47,0.000000,,2013-06-13 06:52:00,
2013-06-13 02:01:00,59.0,57.0,29.81,NNE,12,4.0,12.0,94,0.00,,,1.47,0.000000,,2013-06-13 07:01:00,
2013-06-13 02:11:00,59.0,57.0,29.81,NNW,347,3.0,10.0,93,0.00,,,1.47,0.000000,,2013-06-13 07:11:00,
2013-06-13 02:22:00,59.0,57.0,29.81,NE,35,5.0,9.0,92,0.00,,,1.47,0.000000,,2013-06-13 07:22:00,
2013-06-13 02:33:00,59.0,56.0,29.82,NNE,27,3.0,15.0,91,0.00,,,1.47,0.000000,,2013-06-13 07:33:00,
2013-06-13 02:42:00,59.0,55.0,29.82,NNE,16,4.0,15.0,88,0.00,,,1.47,0.000000,,2013-06-13 07:42:00,
2013-06-13 02:52:00,59.0,55.0,29.82,NNE,28,3.0,10.0,86,0.00,,,1.47,0.000000,,2013-06-13 07:52:00,
2013-06-13 03:01:00,59.0,54.0,29.83,NNE,17,4.0,9.0,85,0.00,,,1.47,0.000000,,2013-06-13 08:01:00,
2013-06-13 03:11:00,59.0,54.0,29.83,North,349,2.0,8.0,83,0.00,,,1.47,0.000000,,2013-06-13 08:11:00,
2013-06-13 03:22:00,59.0,54.0,29.83,North,349,2.0,8.0,83,0.00,,,1.47,0.000000,,2013-06-13 08:22:00,
2013-06-13 03:32:00,59.0,54.0,29.83,North,349,2.0,8.0,83,0.00,,,1.47,0.000000,,2013-06-13 08:32:00,
2013-06-13 03:43:00,59.0,53.0,29.84,NNW,347,3.0,11.0,81,0.00,,,1.47,0.000000,,2013-06-13 08:43:00,
2013-06-13 03:52:00,59.0,53.0,29.84,NNW,347,3.0,11.0,81,0.00,,,1.47,0.000000,,2013-06-13 08:52:00,
2013-06-13 04:02:00,59.0,54.0,29.86,NNW,342,2.0,5.0,82,0.00,,,1.47,0.000000,,2013-06-13 09:02:00,
2013-06-13 04:12:00,59.0,53.0,29.86,North,355,2.0,6.0,81,0.00,,,1.47,0.000000,,2013-06-13 09:12:00,
2013-06-13 04:22:00,59.0,53.0,29.86,NNE,21,2.0,7.0,81,0.00,,,1.47,0.000000,,2013-06-13 09:22:00,
2013-06-13 04:32:00,60.0,53.0,29.86,NNE,28,4.0,12.0,79,0.00,,,1.47,0.000000,,2013-06-13 09:32:00,
2013-06-13 04:42:00,60.0,53.0,29.87,North,9,4.0,12.0,79,0.00,,,1.47,0.000000,,2013-06-13 09:42:00,
2013-06-13 04:52:00,61.0,54.0,29.88,NE,46,6.0,13.0,78,0.00,,,1.47,0.000000,,2013-06-13 09:52:00,
2013-06-13 05:01:00,61.0,54.0,29.88,NE,37,7.0,12.0,78,0.00,,,1.47,0.000000,,2013-06-13 10:01:00,
2013-06-13 05:11:00,61.0,54.0,29.88,NE,37,7.0,12.0,78,0.00,,,1.47,0.000000,,2013-06-13 10:11:00,
2013-06-13 05:22:00,61.0,53.0,29.89,NNE,18,6.0,13.0,76,0.00,,,1.47,0.000000,,2013-06-13 10:22:00,
2013-06-13 05:33:00,61.0,54.0,29.90,NNE,26,4.0,15.0,77,0.00,,,1.47,0.000000,,2013-06-13 10:33:00,
2013-06-13 05:43:00,60.0,53.0,29.91,NNE,24,4.0,10.0,77,0.00,,,1.47,11.000000,,2013-06-13 10:43:00,
2013-06-13 05:53:00,60.0,53.0,29.91,ENE,69,5.0,12.0,77,0.00,,,1.47,21.000000,,2013-06-13 10:53:00,
2013-06-13 06:02:00,60.0,53.0,29.91,NE,34,5.0,14.0,77,0.00,,,1.47,30.000000,,2013-06-13 11:02:00,
2013-06-13 06:11:00,60.0,53.0,29.92,NE,53,7.0,12.0,77,0.00,,,1.47,26.000000,,2013-06-13 11:11:00,
2013-06-13 06:23:00,60.0,53.0,29.92,ENE,76,4.0,12.0,77,0.00,,,1.47,25.000000,,2013-06-13 11:23:00,
2013-06-13 06:32:00,60.0,53.0,29.93,NE,51,3.0,9.0,78,0.00,,,1.47,28.000000,,2013-06-13 11:32:00,
2013-06-13 06:42:00,60.0,53.0,29.93,ENE,65,3.0,7.0,78,0.00,,,1.47,47.000000,,2013-06-13 11:42:00,
2013-06-13 06:52:00,61.0,54.0,29.93,NE,46,4.0,8.0,77,0.00,,,1.47,39.000000,,2013-06-13 11:52:00,
2013-06-13 07:01:00,61.0,54.0,29.94,NNE,30,3.0,8.0,77,0.00,,,1.47,39.000000,,2013-06-13 12:01:00,
2013-06-13 07:11:00,61.0,54.0,29.94,NNE,30,3.0,8.0,77,0.00,,,1.47,39.000000,,2013-06-13 12:11:00,
2013-06-13 07:22:00,63.0,54.0,29.95,NNE,33,5.0,10.0,73,0.00,,,1.47,37.000000,,2013-06-13 12:22:00,
2013-06-13 07:34:00,63.0,53.0,29.95,North,9,7.0,11.0,71,0.00,,,1.47,37.000000,,2013-06-13 12:34:00,
2013-06-13 07:42:00,64.0,54.0,29.95,ENE,59,7.0,14.0,71,0.00,,,1.47,39.000000,,2013-06-13 12:42:00,
2013-06-13 07:52:00,65.0,54.0,29.96,NNE,30,6.0,12.0,68,0.00,,,1.47,79.000000,,2013-06-13 12:52:00,
2013-06-13 08:01:00,64.0,54.0,29.96,ENE,69,4.0,14.0,69,0.00,,,1.47,151.000000,,2013-06-13 13:01:00,
2013-06-13 08:11:00,65.0,54.0,29.96,East,88,5.0,13.0,68,0.00,,,1.47,378.000000,,2013-06-13 13:11:00,
2013-06-13 08:21:00,66.0,54.0,29.97,ENE,74,5.0,12.0,66,0.00,,,1.47,97.000000,,2013-06-13 13:21:00,
2013-06-13 08:32:00,67.0,56.0,29.98,NE,53,2.0,12.0,67,0.00,,,1.47,76.000000,,2013-06-13 13:32:00,
2013-06-13 08:43:00,67.0,55.0,29.98,NNE,26,6.0,14.0,66,0.00,,,1.47,141.000000,,2013-06-13 13:43:00,
2013-06-13 08:53:00,67.0,55.0,29.98,ENE,57,6.0,14.0,65,0.00,,,1.47,478.000000,,2013-06-13 13:53:00,
2013-06-13 09:02:00,67.0,54.0,29.98,NNE,18,9.0,16.0,64,0.00,,,1.47,519.000000,,2013-06-13 14:02:00,
2013-06-13 09:11:00,68.0,56.0,29.98,NE,50,5.0,15.0,65,0.00,,,1.47,550.000000,,2013-06-13 14:11:00,
2013-06-13 09:22:00,68.0,55.0,29.98,North,355,8.0,15.0,64,0.00,,,1.47,561.000000,,2013-06-13 14:22:00,
2013-06-13 09:33:00,69.0,57.0,29.99,East,81,5.0,12.0,66,0.00,,,1.47,605.000000,,2013-06-13 14:33:00,
2013-06-13 09:43:00,69.0,56.0,29.99,NNE,16,4.0,12.0,64,0.00,,,1.47,617.000000,,2013-06-13 14:43:00,
2013-06-13 09:53:00,69.0,55.0,29.99,ENE,65,7.0,13.0,61,0.00,,,1.47,657.000000,,2013-06-13 14:53:00,
2013-06-13 10:01:00,70.0,55.0,29.99,ENE,65,9.0,18.0,60,0.00,,,1.47,686.000000,,2013-06-13 15:01:00,
2013-06-13 10:12:00,70.0,57.0,30.00,NE,38,4.0,16.0,63,0.00,,,1.47,703.000000,,2013-06-13 15:12:00,
2013-06-13 10:22:00,70.0,56.0,30.00,ENE,78,4.0,13.0,62,0.00,,,1.47,731.000000,,2013-06-13 15:22:00,
2013-06-13 10:33:00,71.0,58.0,30.00,NE,38,4.0,14.0,64,0.00,,,1.47,752.000000,,2013-06-13 15:33:00,
2013-06-13 10:43:00,71.0,57.0,30.00,ENE,71,7.0,13.0,61,0.00,,,1.47,761.000000,,2013-06-13 15:43:00,
2013-06-13 10:53:00,71.0,56.0,30.01,NE,49,8.0,15.0,59,0.00,,,1.47,798.000000,,2013-06-13 15:53:00,
2013-06-13 11:02:00,71.0,55.0,30.01,ENE,75,6.0,12.0,58,0.00,,,1.47,816.000000,,2013-06-13 16:02:00,
2013-06-13 11:12:00,72.0,56.0,30.01,NNE,32,3.0,10.0,58,0.00,,,1.47,833.000000,,2013-06-13 16:12:00,
2013-06-13 11:22:00,72.0,57.0,30.01,ENE,62,3.0,10.0,59,0.00,,,1.47,865.000000,,2013-06-13 16:22:00,
2013-06-13 11:33:00,73.0,58.0,30.01,NE,44,2.0,11.0,59,0.00,,,1.47,884.000000,,2013-06-13 16:33:00,
2013-06-13 11:43:00,73.0,57.0,30.02,NE,48,3.0,12.0,57,0.00,,,1.47,213.000000,,2013-06-13 16:43:00,
2013-06-13 11:53:00,72.0,57.0,30.02,NNE,19,6.0,10.0,59,0.00,,,1.47,990.000000,,2013-06-13 16:53:00,
2013-06-13 12:02:00,73.0,56.0,30.02,ENE,68,4.0,13.0,55,0.00,,,1.47,1060.000000,,2013-06-13 17:02:00,
2013-06-13 12:11:00,73.0,57.0,30.01,NE,47,4.0,16.0,57,0.00,,,1.47,666.000000,,2013-06-13 17:11:00,
2013-06-13 12:24:00,73.0,57.0,30.01,ENE,57,4.0,10.0,58,0.00,,,1.47,257.000000,,2013-06-13 17:24:00,
2013-06-13 12:33:00,72.0,56.0,30.02,NNW,327,7.0,14.0,58,0.00,,,1.47,221.000000,,2013-06-13 17:33:00,
2013-06-13 12:43:00,73.0,56.0,30.01,North,360,6.0,14.0,55,0.00,,,1.47,1151.000000,,2013-06-13 17:43:00,
2013-06-13 12:53:00,74.0,56.0,30.02,NNE,26,6.0,14.0,53,0.00,,,1.47,1165.000000,,2013-06-13 17:53:00,
2013-06-13 13:02:00,74.0,58.0,30.03,NE,35,4.0,15.0,57,0.00,,,1.47,1167.000000,,2013-06-13 18:02:00,
2013-06-13 13:11:00,74.0,55.0,30.03,NNE,24,5.0,15.0,51,0.00,,,1.47,1111.000000,,2013-06-13 18:11:00,
2013-06-13 13:22:00,74.0,56.0,30.03,NE,36,4.0,14.0,53,0.00,,,1.47,279.000000,,2013-06-13 18:22:00,
2013-06-13 13:33:00,72.0,56.0,30.04,NNE,27,9.0,17.0,57,0.00,,,1.47,301.000000,,2013-06-13 18:33:00,
2013-06-13 13:43:00,73.0,58.0,30.04,NE,50,5.0,14.0,59,0.00,,,1.47,241.000000,,2013-06-13 18:43:00,
2013-06-13 13:52:00,72.0,58.0,30.05,ENE,67,4.0,13.0,61,0.00,,,1.47,243.000000,,2013-06-13 18:52:00,
2013-06-13 14:01:00,72.0,57.0,30.05,ENE,61,5.0,13.0,59,0.00,,,1.47,993.000000,,2013-06-13 19:01:00,
2013-06-13 14:11:00,72.0,57.0,30.05,NNE,18,7.0,14.0,60,0.00,,,1.47,977.000000,,2013-06-13 19:11:00,
2013-06-13 14:22:00,73.0,57.0,30.05,ENE,62,9.0,19.0,57,0.00,,,1.47,1044.000000,,2013-06-13 19:22:00,
2013-06-13 14:33:00,72.0,56.0,30.05,NE,46,8.0,16.0,57,0.00,,,1.47,239.000000,,2013-06-13 19:33:00,
2013-06-13 14:43:00,71.0,56.0,30.05,North,9,8.0,15.0,59,0.00,,,1.47,260.000000,,2013-06-13 19:43:00,
2013-06-13 14:53:00,72.0,57.0,30.06,NNE,24,5.0,15.0,59,0.00,,,1.47,271.000000,,2013-06-13 19:53:00,
2013-06-13 15:01:00,72.0,56.0,30.05,East,82,5.0,14.0,58,0.00,,,1.47,267.000000,,2013-06-13 20:01:00,
2013-06-13 15:11:00,74.0,58.0,30.05,NE,40,4.0,13.0,58,0.00,,,1.47,1032.000000,,2013-06-13 20:11:00,
2013-06-13 15:22:00,73.0,58.0,30.05,NE,38,4.0,13.0,59,0.00,,,1.47,232.000000,,2013-06-13 20:22:00,
2013-06-13 15:33:00,74.0,57.0,30.05,NNW,331,5.0,13.0,56,0.00,,,1.47,919.000000,,2013-06-13 20:33:00,
2013-06-13 15:44:00,74.0,57.0,30.05,NNE,17,8.0,15.0,55,0.00,,,1.47,821.000000,,2013-06-13 20:44:00,
2013-06-13 15:53:00,74.0,56.0,30.05,WNW,302,3.0,16.0,54,0.00,,,1.47,800.000000,,2013-06-13 20:53:00,
2013-06-13 16:02:00,74.0,56.0,30.05,NE,44,9.0,15.0,53,0.00,,,1.47,770.000000,,2013-06-13 21:02:00,
2013-06-13 16:11:00,73.0,57.0,30.06,NNE,19,4.0,18.0,58,0.00,,,1.47,833.000000,,2013-06-13 21:11:00,
2013-06-13 16:22:00,72.0,59.0,30.06,ENE,61,3.0,14.0,63,0.00,,,1.47,812.000000,,2013-06-13 21:22:00,
2013-06-13 16:34:00,71.0,59.0,30.06,East,85,4.0,15.0,66,0.00,,,1.47,749.000000,,2013-06-13 21:34:00,
2013-06-13 16:43:00,70.0,58.0,30.06,NE,53,6.0,14.0,65,0.00,,,1.47,663.000000,,2013-06-13 21:43:00,
2013-06-13 17:02:00,69.0,57.0,30.07,East,82,9.0,14.0,65,0.00,,,1.47,603.000000,,2013-06-13 22:02:00,
2013-06-13 17:11:00,68.0,56.0,30.07,ENE,60,8.0,15.0,65,0.00,,,1.47,578.000000,,2013-06-13 22:11:00,
2013-06-13 17:22:00,67.0,55.0,30.08,East,94,9.0,14.0,65,0.00,,,1.47,543.000000,,2013-06-13 22:22:00,
2013-06-13 17:43:00,66.0,56.0,30.08,East,88,4.0,11.0,69,0.00,,,1.47,473.000000,,2013-06-13 22:43:00,
2013-06-13 18:02:00,66.0,55.0,30.07,East,79,4.0,13.0,68,0.00,,,1.47,425.000000,,2013-06-13 23:02:00,
2013-06-13 18:11:00,66.0,55.0,30.07,ENE,70,5.0,11.0,67,0.00,,,1.47,394.000000,,2013-06-13 23:11:00,
2013-06-13 18:22:00,66.0,55.0,30.07,North,355,4.0,9.0,68,0.00,,,1.47,353.000000,,2013-06-13 23:22:00,
2013-06-13 18:32:00,65.0,54.0,30.07,ENE,70,5.0,10.0,68,0.00,,,1.47,325.000000,,2013-06-13 23:32:00,
2013-06-13 18:43:00,65.0,54.0,30.08,ESE,103,5.0,11.0,68,0.00,,,1.47,295.000000,,2013-06-13 23:43:00,
2013-06-13 18:52:00,65.0,55.0,30.08,East,81,4.0,10.0,70,0.00,,,1.47,264.000000,,2013-06-13 23:52:00,
2013-06-13 19:01:00,64.0,53.0,30.08,East,84,6.0,13.0,68,0.00,,,1.47,230.000000,,2013-06-14 00:01:00,
2013-06-13 19:12:00,64.0,53.0,30.08,East,101,6.0,10.0,67,0.00,,,1.47,200.000000,,2013-06-14 00:12:00,
2013-06-13 19:22:00,64.0,53.0,30.09,ENE,74,7.0,11.0,67,0.00,,,1.45,171.000000,,2013-06-14 00:22:00,
2013-06-13 19:34:00,63.0,52.0,30.09,East,98,6.0,9.0,68,0.00,,,1.45,134.000000,,2013-06-14 00:34:00,
2013-06-13 19:43:00,63.0,52.0,30.09,East,82,4.0,9.0,68,0.00,,,1.45,107.000000,,2013-06-14 00:43:00,
2013-06-13 19:53:00,63.0,53.0,30.10,ENE,69,4.0,8.0,69,0.00,,,1.45,76.000000,,2013-06-14 00:53:00,
2013-06-13 20:01:00,63.0,53.0,30.10,East,94,4.0,8.0,69,0.00,,,1.45,54.000000,,2013-06-14 01:01:00,
2013-06-13 20:11:00,62.0,52.0,30.10,ENE,71,3.0,7.0,70,0.00,,,1.45,33.000000,,2013-06-14 01:11:00,
2013-06-13 20:22:00,62.0,52.0,30.10,ENE,74,5.0,9.0,71,0.00,,,0.39,21.000000,,2013-06-14 01:22:00,
2013-06-13 20:32:00,62.0,53.0,30.11,ESE,112,1.0,7.0,72,0.00,,,0.39,12.000000,,2013-06-14 01:32:00,
2013-06-13 20:43:00,61.0,52.0,30.11,East,86,2.0,8.0,73,0.00,,,0.39,7.000000,,2013-06-14 01:43:00,
2013-06-13 20:52:00,60.0,52.0,30.11,ESE,114,2.0,7.0,74,0.00,,,0.39,0.000000,,2013-06-14 01:52:00,
2013-06-13 21:02:00,60.0,52.0,30.11,ENE,74,6.0,13.0,75,0.00,,,0.39,0.000000,,2013-06-14 02:02:00,
2013-06-13 21:11:00,59.0,51.0,30.12,East,101,4.0,10.0,75,0.00,,,0.39,0.000000,,2013-06-14 02:11:00,
2013-06-13 21:22:00,59.0,51.0,30.12,ENE,65,6.0,10.0,76,0.00,,,0.30,0.000000,,2013-06-14 02:22:00,
2013-06-13 21:32:00,58.0,51.0,30.12,ESE,103,4.0,14.0,77,0.00,,,0.30,0.000000,,2013-06-14 02:32:00,
2013-06-13 21:43:00,58.0,51.0,30.13,East,91,4.0,9.0,78,0.00,,,0.30,0.000000,,2013-06-14 02:43:00,
2013-06-13 21:52:00,57.0,50.0,30.13,East,96,4.0,10.0,78,0.00,,,0.30,0.000000,,2013-06-14 02:52:00,
2013-06-13 22:02:00,57.0,51.0,30.13,East,95,4.0,7.0,79,0.00,,,0.30,0.000000,,2013-06-14 03:02:00,
2013-06-13 22:12:00,57.0,51.0,30.13,East,95,3.0,8.0,80,0.00,,,0.30,0.000000,,2013-06-14 03:12:00,
2013-06-13 22:22:00,57.0,51.0,30.14,ESE,113,3.0,7.0,80,0.00,,,0.22,0.000000,,2013-06-14 03:22:00,
2013-06-13 22:34:00,57.0,51.0,30.14,ESE,103,3.0,7.0,81,0.00,,,0.22,0.000000,,2013-06-14 03:34:00,
2013-06-13 22:43:00,57.0,51.0,30.14,East,82,2.0,8.0,81,0.00,,,0.22,0.000000,,2013-06-14 03:43:00,
2013-06-13 22:52:00,56.0,50.0,30.14,East,88,3.0,7.0,81,0.00,,,0.22,0.000000,,2013-06-14 03:52:00,
2013-06-13 23:01:00,56.0,51.0,30.14,East,83,2.0,7.0,82,0.00,,,0.22,0.000000,,2013-06-14 04:01:00,
2013-06-13 23:12:00,56.0,51.0,30.14,East,82,2.0,5.0,83,0.00,,,0.22,0.000000,,2013-06-14 04:12:00,
2013-06-13 23:22:00,56.0,51.0,30.14,ENE,69,3.0,7.0,83,0.00,,,0.01,0.000000,,2013-06-14 04:22:00,
2013-06-13 23:33:00,56.0,51.0,30.14,ENE,61,4.0,7.0,84,0.00,,,0.01,0.000000,,2013-06-14 04:33:00,
2013-06-13 23:43:00,55.0,50.0,30.14,East,90,3.0,6.0,84,0.00,,,0.01,0.000000,,2013-06-14 04:43:00,
2013-06-13 23:53:00,55.0,51.0,30.14,East,79,3.0,7.0,85,0.00,,,0.01,0.000000,,2013-06-14 04:53:00,